Location: Brno
(49.2000°N, 16.6330°E)
Time: 23:04:36
(UTC+02:00)

Cosmos 1603 - Visible Passes

Search period start: 23 April 2014 00:00
Search period end: 03 May 2014 00:00
Orbit: 832 x 859 km, 71.0° (Epoch: 22 April)

Date Brightness Start Highest point End Pass type
(mag) Time Alt. Az. Time Alt. Az. Time Alt. Az.
23 Apr 6.2 21:46:59 10° WNW 21:49:34 13° W 21:52:09 10° SW visible
24 Apr 6.3 21:33:05 10° WNW 21:35:48 14° W 21:38:31 10° SW visible
25 Apr 6.3 21:19:10 10° WNW 21:22:01 14° W 21:24:52 10° SW visible
26 Apr 6.3 21:05:17 10° WNW 21:08:15 15° W 21:11:12 10° SW visible
27 Apr 6.3 20:51:23 10° WNW 20:54:28 15° W 20:57:32 10° SW visible
28 Apr 6.3 20:37:30 10° WNW 20:40:41 16° W 20:43:52 10° SW visible
